Observations for Trim Patrick St
| Time | AQI | Temp °C | Hum % | Pres Pa | CO μg/m³ | H₂S μg/m³ | NO μg/m³ | NO₂ μg/m³ | O₃ μg/m³ | SO₂ μg/m³ | PM1 μg/m³ | PM2.5 μg/m³ | PM10 μg/m³ |
|---|---|---|---|---|---|---|---|---|---|---|---|---|---|
| Friday 31 July 2026 | |||||||||||||
| 18:47 | 3 | 22.4 | 41 | 68,821 | 0 | 11.14 | 1.52 | 11.91 | 82.05 | 6.7 | 13.14 | 26.54 | 27.01 |
| 18:46 | 3 | 22.5 | 41 | 68,831 | 0 | 10.1 | 1.53 | 10.97 | 83.27 | 6.26 | 14 | 24.99 | 27.03 |
| 18:45 | 3 | 22.5 | 41 | 68,847 | 0 | 8.04 | 1.53 | 9.18 | 76.89 | 5.88 | 15.71 | 28.15 | 32.95 |
| 18:44 | 3 | 22.5 | 41 | 68,837 | 0 | 8.83 | 1.53 | 8.69 | 65.68 | 5.98 | 18.29 | 30.46 | 35.81 |
| 18:43 | 3 | 22.6 | 41 | 68,853 | 0 | 12.96 | 1.52 | 18.48 | 74.84 | 6.53 | 20.86 | 32.8 | 39.68 |
| 18:42 | 3 | 22.7 | 41 | 68,841 | 0 | 12.45 | 1.52 | 12.79 | 75.48 | 6.72 | 20.86 | 32.81 | 38.73 |
| 18:41 | 3 | 22.7 | 41 | 68,853 | 0 | 12.11 | 1.53 | 11.44 | 79.11 | 7.06 | 20.86 | 34.4 | 42.7 |
| 18:40 | 3 | 22.8 | 40 | 68,839 | 0 | 12 | 1.53 | 15.59 | 76.26 | 6.29 | 19.14 | 32.08 | 35.91 |
| 18:39 | 3 | 22.8 | 40 | 68,847 | 0 | 11.47 | 1.53 | 9.95 | 81.38 | 6.72 | 17.43 | 32.09 | 35.94 |
| 18:38 | 3 | 22.9 | 40 | 68,831 | 0 | 12.29 | 1.52 | 13.31 | 82.15 | 6.87 | 18.29 | 32.09 | 41.81 |
| 18:37 | 3 | 22.9 | 40 | 68,839 | 0 | 12.13 | 1.54 | 10.33 | 80.59 | 6.93 | 18.29 | 29.77 | 31.09 |
| 18:36 | 3 | 23 | 40 | 68,849 | 0 | 12.49 | 1.56 | 10.91 | 84.72 | 7.04 | 17.43 | 30.55 | 31.09 |
| 18:35 | 3 | 23 | 40 | 68,839 | 0 | 9.85 | 1.57 | 14.24 | 72.46 | 6.73 | 17.43 | 30.59 | 35.08 |
| 18:34 | 3 | 23.1 | 40 | 68,855 | 0 | 8.04 | 1.74 | 9.67 | 76.49 | 6.47 | 18.29 | 30.62 | 39.07 |
| 18:33 | 3 | 23.2 | 40 | 68,871 | 0 | 5.84 | 1.76 | 13.24 | 69.39 | 6.3 | 15.71 | 26.68 | 29.21 |
| 18:31 | 3 | 23.3 | 40 | 68,869 | 0 | 9.1 | 1.65 | 11.11 | 82.2 | 7.2 | 12.29 | 21.95 | 26.22 |
| 18:28 | 3 | 23.4 | 40 | 68,873 | 0 | 10.92 | 1.49 | 17.44 | 73.88 | 7.32 | 13.14 | 22.73 | 25.01 |
| 18:27 | 3 | 23.4 | 40 | 68,863 | 0 | 6.97 | 1.51 | 12.29 | 83.93 | 6.67 | 14 | 22.79 | 25.06 |
| 18:26 | 3 | 23.5 | 39 | 68,849 | 0 | 2.62 | 1.51 | 8.56 | 61.31 | 6.47 | 13.14 | 24.39 | 26.83 |
| 18:25 | 3 | 23.6 | 40 | 68,867 | 0 | 9.4 | 1.48 | 9.41 | 76.82 | 7.64 | 16.57 | 30.58 | 36.04 |